Showing default

OPS 9348 (IDSCS 26), 3291

Orbit data source: Space-Track

OPS 9348 (IDSCS 26), 3291 is a payload satellite owned by SAMSO (US) in GEO that was launched on Thu, 13 Jun 1968 UTC via a TITAN IIIC launch vehicle from the Air Force Eastern Test Range (AFETR). Payload-class satellites include a variety of spacecraft equipped with specific instruments for various scientific and technological missions. These include communications satellites like Starlink; space stations such as the ISS; scientific satellites like the Hubble; Earth observation satellites from companies like Planet Labs, Umbra, and HawkEye 360; GPS; miniature CubeSats for education and research; and military/defense satellites.

Not visible in the next 10 days
Identifier
3291, 1968-050H
Orbit
GEO
Country
Flag of USUS
Related business
Manufacturer
Philco-Ford
Mission
Non-operational Defense Communications
Bus & Motor
IDCSP, Unknown motor
Mass
45 kg wet, 45 kg dry
Launch date (UTC)
1968-06-13 (57 years ago)
Launch vehicle
TITAN IIIC
Launch site
Air Force Eastern Test Range (AFETR)
Object type
Payload
Rocket body
Debris
Shape & HBR
Poly, 0.5 m
Radar Cross Section
0.926 m², Medium (>0.1 m² and < 1m²)

Expand to show TLE details & history
Last TLE update: 17 hours ago

TLE from 17 hours ago
0 OPS 9348 (IDSCS 26)
1 03291U 68050H   25260.65173696 -.00000135  00000-0  00000-0 0  9992
2 03291   6.3383  57.3351 0076272 126.6684 147.8377  1.06767758223114
Epoch: 2025-09-17T15:38Z
TLE epoch observation values (Epoch: 2025-09-17T15:38:30.073Z)
Latitude
-6.31468°
Longitude
100.87711°
Altitude
34,322.159 km
Speed
3.119 km/s
True Right ascension
22h 09m 18s
True Declination
-6° 18' 29"
Sunlit
Object was in daylight at epoch
Visualization orbit readout
Latitude
Unknown
Longitude
Unknown
Altitude
Unknown
Speed
Unknown
Apparent Right ascension
Unknown
Apparent Declination
Unknown
Sunlit
N/A
Visualization observer readout
Local Sidereal Time
01:21:59
Azimuth
Unknown
Elevation
Unknown
Doppler factor
Unknown
Orbital elements
Apogee altitude
34,368.027 km
Perigee altitude
33,751.173 km
Semi-major axis
40,437.737 km
Eccentricity
0.00763
Inclination
6.3383°
RAAN
57.3351°
Arg. of periapsis
126.6684°
True anomaly
148.29922°
Mean anomaly
147.8377°
Eccentric anomaly
148.06883°
Mean motion
0.26691 °/min
Orbital period
1,348.78 mins
BSTAR
0
Loading maneuver chart data...
Computing Atmospheric mass density...
Loading historical data...
Loading historical data...
Loading historical data...
Loading historical data...
Loading historical data...
Loading historical data...
Loading historical data...

Documentation

Showing up to 5 results
|